INTELSAT 902 (IS-902)

Last updated on Fri Oct 31 2025 00:02:44 GMT+0000 (Coordinated Universal Time)

1 26900U 01039A 25302.31837023 -.00000270 00000+0 00000+0 0 9997 2 26900 5.5323 74.5916 0004367 140.6922 247.1466 1.00272641 88383
UTC large
Height (km)
Speed (km/s)
/
Latitude / Longitude
Inclination (degrees)
Orbital Period (minutes)
Azimuth
Elevation
Range (km)
Doppler Factor

Next 0 passes for location: London (51.5072 / 0.1276)

Sorry there are no passes over London.